Weather in Bochkarevka

Russia / Novosibirsk Oblast     56°56′01″N   76°51′46″E
temp.,
°C
wind,
m/s
gust,
m/s
humid.,
%
clouds,
%
prec.,
mm/h
press.,
hPa
HPBL,
m
3 march, wed
wed301:00−18s239892 0.1 101468
04:00−19ssw239987 0.1 101374
07:00−20s359988 0.1 1014103
10:00−19s389884 0.0 1013250
13:00−14s499592 0.0 1013374
16:00−11s51093100 0.1 1012516
19:00−12s61392100 0.1 1011603
22:00−13ssw61393100 0.1 1011645
4 march, thu
thu401:00−12ssw51194100 0.7 1010620
04:00−9s51294100 0.6 1008648
07:00−7ssw41194100 1.1 1008632
10:00−5ssw41194100 0.5 1007685
13:00−3ssw51094100 0.8 1006862
16:00−1ssw61194100 0.5 1005939
19:00−2s71395100 1.4 1003942
22:00−3s61394100 0.8 1001870
5 march, fri
fri501:00−3ssw61394100 1.4 1000888
04:00−3ssw61394100 0.4 998802
07:00−2ssw61294100 0.8 999867
10:00−5wsw61389100 0.1 1001810
13:00−6wsw61190100 0.2 1004752
16:00−5sw51087100 0.1 1005849
19:00−7sw51092100 0.4 1007966
22:00−8ssw41192100 0.1 1007508
6 march, sat
sat601:00−7ssw4139399 0.3 1008467
04:00−4ssw41093100 0.3 1008497
07:00−4ssw51193100 0.5 1007607
10:00−4ssw51094100 0.8 1004776
13:00−3ssw51094100 1.2 1003764
16:00−2ssw61195100 0.8 1000893
19:00−2ssw61395100 1.9 9971116
22:00−2sw61496100 0.6 9981084
7 march, sun
sun701:00−7wsw71489100 1.0 1003759
04:00−12wsw51391100 0.1 1007650
07:00−15wsw51393100 0.1 1011430
10:00−16sw4995100 0.0 1012338
13:00−13ssw4894100 0.1 1013345
16:00−10s3694100 0.1 1011348
19:00−10sse4995100 1.2 1008544
22:00−9se51195100 1.3 1004501